Vorticity
10 10 10 10 9 8 10 11 12 13 12 10 9 10 9 9 9 8 9 9 9 8 7 6 6 5 5 5 5 4 4 4 4 5 5 6 6 6 6 6 7 6 7 7 7 7 6 7 7 7 7 7 8 7 8 8 8 10 10 11 11 8 3 2 7 4 -4 -3 2 2 4 4 1 1 -0 5 6 6 12 9 5 7 7 7 6 5 7 10
12 11 11 11 10 10 10 10 11 12 13 10 9 10 9 9 9 8 8 10 9 9 8 8 7 6 6 7 6 6 5 5 5 6 6 5 6 6 6 6 7 7 7 7 7 7 7 7 7 8 8 8 8 8 8 7 9 9 10 11 7 6 6 8 4 -6 -2 2 2 3 6 7 6 7 5 6 10 12 12 6 6 8 6 5 5 6 9 8
13 12 11 12 11 11 11 10 11 12 13 11 10 11 10 8 8 9 8 8 10 10 9 8 8 7 7 7 7 7 7 6 6 7 7 7 7 7 7 7 7 7 7 7 7 7 7 7 7 9 8 9 10 10 10 10 11 8 8 10 7 5 6 11 6 -2 4 4 2 5 5 7 10 12 10 5 8 12 11 5 4 4 3 5 5 7 9 7
12 12 12 12 11 11 12 11 11 11 13 13 11 11 12 9 7 8 9 8 8 9 9 9 8 7 7 7 7 7 7 6 6 6 7 7 7 7 8 8 8 8 8 8 8 8 8 8 8 8 8 10 10 10 10 11 13 11 10 8 5 6 4 6 5 2 5 5 5 3 1 6 9 12 9 3 4 8 9 7 5 3 4 7 8 9 10 9
12 13 13 13 11 11 12 11 11 12 13 14 12 11 11 12 8 6 9 9 9 9 8 9 8 8 8 7 6 7 7 7 6 7 7 7 8 8 7 8 9 8 9 9 9 9 8 9 9 9 11 12 11 11 10 7 7 9 10 6 4 8 7 7 8 8 8 6 5 6 6 7 7 9 6 6 9 9 7 5 4 5 6 8 11 14 14 12
12 14 14 14 12 11 13 12 12 12 14 15 14 12 10 14 13 7 7 9 10 10 9 9 8 8 8 7 7 7 8 7 8 9 9 9 9 9 9 9 9 8 9 9 9 9 9 10 10 11 12 12 13 12 10 8 5 5 9 8 8 9 8 10 11 10 9 10 10 10 8 6 7 7 6 8 8 4 3 4 5 6 7 7 9 11 10 7
15 15 15 15 13 12 13 13 12 11 14 15 14 13 11 13 15 11 9 10 11 11 11 10 9 9 9 9 8 9 9 7 7 9 8 9 9 8 9 9 9 9 9 9 9 9 9 10 11 11 11 10 9 6 3 5 6 6 9 10 10 10 7 5 6 7 8 14 15 8 5 5 6 7 8 7 2 3 5 7 8 6 6 6 6 5 4 3
17 16 16 15 14 14 14 12 11 11 13 14 12 13 12 12 15 14 10 11 12 12 13 12 10 11 10 10 10 10 10 8 9 10 8 9 11 10 9 9 9 10 9 10 10 9 10 10 11 11 10 7 3 3 2 2 2 3 9 12 10 10 9 5 6 10 9 11 10 5 6 7 6 6 7 6 3 7 8 7 7 7 8 7 6 8 10 8
17 17 16 14 14 15 14 12 9 10 12 13 12 12 13 13 14 15 12 12 13 13 14 13 12 11 11 11 11 11 10 9 11 13 10 9 11 11 11 11 10 10 10 10 9 10 11 10 11 9 7 4 2 6 9 10 5 -2 3 9 9 8 10 10 10 11 9 9 8 6 8 7 8 7 7 10 8 8 9 9 9 9 10 9 7 7 9 9
16 16 13 12 14 15 14 11 9 10 11 13 13 11 13 14 13 14 13 13 13 14 14 14 13 12 12 12 12 12 12 11 12 12 12 11 10 9 9 9 10 12 11 11 11 11 10 9 9 7 5 5 7 11 14 21 20 8 2 4 9 10 11 12 11 11 11 9 8 7 6 5 6 5 8 14 11 11 11 8 8 9 9 9 6 6 6 8
14 13 11 11 14 14 12 10 8 9 11 13 13 12 12 14 13 13 13 13 13 14 14 14 14 13 13 13 14 14 12 14 14 12 12 12 10 9 8 7 8 10 11 12 11 10 9 9 7 7 8 9 13 15 11 15 18 16 13 9 10 10 10 12 10 10 8 5 6 5 3 3 5 7 10 13 12 10 8 6 7 9 10 9 8 11 11 8
11 10 11 11 13 13 11 10 9 9 11 13 14 13 13 13 13 13 13 12 12 12 12 13 13 13 13 13 14 12 10 13 12 11 10 10 9 9 9 9 8 7 9 10 10 10 8 8 8 8 9 9 9 8 5 4 3 6 10 9 10 8 8 8 5 3 2 4 6 4 4 8 11 13 11 12 15 11 8 8 8 12 16 14 13 10 11 9
9 10 12 12 12 13 10 10 10 9 11 15 15 13 13 14 14 14 13 12 12 12 11 12 12 13 12 12 12 11 12 11 9 9 7 8 8 8 10 10 10 9 9 9 9 10 8 8 9 8 9 11 7 4 7 9 7 6 7 8 10 8 6 4 2 4 8 10 9 7 10 14 14 16 17 15 18 14 8 9 11 16 15 12 11 6 7 6
8 10 13 12 11 11 9 8 11 10 11 15 15 14 14 15 15 15 15 14 14 14 13 12 12 12 10 10 11 11 11 8 7 9 8 9 8 8 9 9 10 9 9 9 9 10 12 12 9 8 10 11 8 8 13 15 14 13 12 11 8 3 2 4 4 6 11 7 7 12 12 15 12 11 16 12 16 17 7 7 9 7 9 10 8 5 4 4
9 11 12 12 10 11 11 9 10 10 11 14 15 15 15 15 15 15 15 14 15 14 14 14 13 12 11 11 12 11 10 9 8 9 9 9 8 8 9 8 9 9 9 9 9 8 9 11 9 10 9 7 8 9 10 11 11 11 9 8 5 2 4 8 8 11 21 15 11 13 8 15 16 9 10 -1 2 14 7 5 6 1 9 15 10 8 7 6
9 12 10 10 11 12 13 10 9 10 11 14 14 14 14 13 12 11 10 10 10 10 11 12 12 12 11 13 15 12 10 11 10 9 9 9 8 8 7 8 8 7 8 7 6 4 4 5 5 7 4 3 6 6 6 5 6 7 4 2 0 2 3 9 11 5 13 18 15 10 7 21 19 5 11 3 -5 5 7 5 8 9 12 15 16 19 19 15
10 11 8 9 13 13 15 12 9 10 11 13 13 12 11 10 9 8 7 6 5 5 5 6 7 8 7 9 13 12 9 9 10 10 9 9 9 9 8 8 6 5 5 4 4 2 3 4 3 3 3 3 5 4 5 4 4 5 7 10 8 9 8 11 12 -0 -2 9 12 2 3 22 18 5 12 13 6 4 7 7 2 6 8 10 14 14 16 18
17 14 10 11 17 18 16 11 9 11 11 12 11 9 9 9 8 6 5 5 4 5 5 4 4 5 4 3 6 9 10 11 12 11 10 10 9 9 9 8 7 7 6 6 7 6 8 8 8 9 7 8 8 7 9 10 10 8 6 7 4 15 27 22 16 8 -0 2 7 -1 1 16 16 12 8 2 10 9 2 3 -2 1 5 4 3 1 5 9
22 15 11 15 25 23 15 9 9 11 11 11 9 8 9 8 8 7 5 5 6 7 8 6 6 5 3 4 4 4 7 9 10 11 11 11 11 10 10 9 9 8 8 9 8 8 10 9 9 10 9 10 10 10 13 13 12 6 -3 -9 -13 2 23 21 12 10 2 -0 7 2 5 20 13 8 7 -4 6 10 1 4 1 2 4 1 3 2 5 8
21 13 10 19 29 22 11 8 9 10 10 10 8 8 8 7 7 6 4 5 6 8 7 7 9 8 5 5 4 3 4 6 8 9 10 11 11 11 10 10 10 9 9 9 8 8 8 8 8 10 12 13 12 12 12 9 7 5 1 -0 -2 4 15 13 2 1 1 -1 5 1 4 27 19 -0 3 -2 -5 -5 -0 12 7 4 8 4 7 8 10 17
18 12 13 25 28 16 9 9 7 10 10 8 9 9 6 6 6 3 3 6 6 7 8 7 8 8 7 5 4 5 3 2 3 4 6 9 10 12 11 10 10 10 11 8 8 9 7 9 10 11 11 8 9 7 6 7 6 4 1 2 5 5 10 11 1 -1 1 -5 0 5 1 16 18 0 -1 1 -1 -7 -5 12 8 2 12 12 10 11 13 20
14 13 20 28 22 11 10 8 6 9 9 8 9 7 4 6 6 3 5 6 5 5 7 8 9 8 7 6 6 9 7 4 4 3 3 4 6 10 11 12 11 11 11 8 8 9 9 12 11 10 8 6 6 3 4 6 5 7 4 8 13 -2 -10 1 2 1 6 3 4 5 -2 7 19 18 18 12 9 3 -9 1 9 2 5 10 9 9 8 10
14 16 24 24 15 11 10 7 7 9 8 8 8 5 5 7 6 4 4 5 5 5 6 9 12 10 8 8 9 14 15 12 11 8 6 5 5 6 7 8 9 8 9 7 8 8 8 9 6 5 4 5 7 7 10 8 5 9 4 14 25 1 -13 4 8 -1 -1 2 4 -0 -2 6 3 -1 13 15 10 14 3 -6 2 5 4 6 8 6 6 8
18 20 24 18 12 11 9 7 8 8 7 8 7 5 7 7 6 4 4 3 4 5 7 9 10 9 9 10 12 17 19 14 10 8 8 8 5 2 2 4 4 4 4 4 3 3 3 3 2 3 2 2 5 6 9 7 5 5 -1 14 26 5 -8 0 5 8 6 1 2 2 0 3 1 -3 11 17 10 17 21 10 3 6 5 2 6 5 3 9
19 24 22 13 12 11 8 9 8 7 8 7 6 7 8 7 5 5 5 5 4 4 7 8 8 10 11 11 13 18 18 12 11 11 9 10 8 6 5 3 1 2 4 3 2 3 5 6 5 6 7 5 5 5 6 7 5 3 2 16 25 12 2 -2 -3 2 2 -2 0 6 4 2 7 11 10 11 11 14 24 27 17 16 16 1 -2 1 0 7
19 26 19 10 11 10 9 10 9 8 7 6 7 8 8 7 6 7 5 4 5 5 7 8 9 10 11 11 14 18 17 12 14 16 13 10 9 10 10 7 5 5 6 6 6 6 8 9 8 9 9 9 9 6 3 5 8 9 9 10 12 11 10 6 -2 -10 -11 -5 -0 4 6 2 -1 4 8 9 15 14 11 13 11 20 32 21 10 9 11 16
19 24 18 11 10 11 12 12 10 8 6 7 9 9 8 8 8 8 4 2 5 6 7 11 13 14 15 13 14 17 16 12 12 14 15 15 13 11 12 12 10 8 8 8 7 8 11 12 10 8 7 5 7 8 5 7 12 14 12 8 10 15 16 14 9 5 3 4 10 8 -2 -2 1 9 17 11 14 16 7 3 0 4 16 21 23 17 14 20
17 20 20 16 13 14 14 12 11 9 7 8 9 8 8 8 8 8 4 3 7 7 6 9 10 12 15 17 17 15 13 12 13 13 14 15 15 13 11 14 14 10 11 10 9 13 13 13 9 9 16 13 5 10 15 14 11 10 11 11 14 17 17 17 15 13 9 4 15 14 -5 -7 1 7 10 9 22 24 7 5 7 3 1 5 13 8 3 15
17 17 19 20 18 16 12 10 10 11 9 6 7 8 7 8 8 7 4 2 6 9 7 9 10 10 11 16 18 14 13 13 11 13 14 10 12 14 10 12 12 9 8 7 10 11 7 12 14 8 13 15 7 13 20 13 7 9 11 9 4 -1 -0 6 8 6 6 8 17 21 16 11 6 9 8 8 24 22 -1 -3 5 6 5 2 3 3 0 7
18 14 14 17 17 14 11 7 7 10 10 7 7 8 6 7 7 6 7 5 4 6 8 11 10 8 7 10 13 12 13 15 8 8 13 9 8 12 11 10 10 9 8 5 5 7 2 7 15 8 3 6 10 18 18 11 9 9 9 9 5 1 1 3 5 3 2 7 14 22 31 24 12 15 12 5 13 15 3 -4 -3 0 2 -2 -1 4 6 4
18 13 10 11 12 12 10 8 9 9 7 7 9 8 6 7 7 6 6 8 6 6 12 15 11 10 9 8 11 12 11 13 10 6 11 11 7 8 9 8 9 8 9 7 4 6 4 -3 1 6 1 0 7 11 9 7 8 7 6 10 8 1 -1 -1 4 4 -4 0 12 18 21 16 10 14 12 5 5 7 8 6 2 1 2 5 4 -4 -3 2
16 14 9 7 8 9 8 9 11 8 8 8 6 7 7 6 8 6 6 9 9 6 9 12 11 12 12 7 8 12 12 11 10 8 10 11 9 9 10 9 11 9 9 10 6 7 9 -1 -3 5 6 7 13 16 16 10 4 7 8 10 8 1 -3 1 7 7 1 6 15 18 19 15 8 4 4 6 6 6 11 16 14 5 1 10 13 1 -3 2
12 15 12 7 6 7 8 9 9 8 9 7 4 7 7 5 7 10 12 12 10 7 7 13 16 15 15 12 8 8 10 10 9 9 11 10 7 9 10 8 9 10 10 10 10 16 17 5 1 6 3 4 9 11 18 16 6 8 10 8 9 7 6 8 10 9 9 12 14 12 13 12 5 0 1 3 5 8 11 15 17 12 7 8 9 7 3 1
9 11 13 12 8 8 9 8 9 9 7 6 8 7 5 7 11 14 14 9 9 12 11 16 22 18 15 11 10 14 14 13 11 7 9 10 6 7 9 9 9 9 11 9 7 15 18 6 3 6 1 4 12 10 11 15 11 7 8 8 7 7 9 10 10 11 10 10 11 8 5 7 7 6 8 7 2 4 8 9 11 10 10 12 13 12 5 1
10 9 10 11 11 10 10 10 8 7 7 7 7 7 12 19 18 14 9 2 5 8 7 12 17 24 27 12 9 15 9 11 19 13 12 12 7 7 7 8 10 10 11 11 5 6 11 9 7 13 18 17 16 11 6 9 9 5 7 12 13 13 14 14 12 8 3 5 9 6 1 4 6 4 8 13 11 8 7 6 6 6 6 10 13 15 11 8
8 8 7 7 8 6 6 7 5 5 8 7 8 17 25 22 14 10 6 1 3 2 3 7 0 6 25 19 14 16 4 8 20 16 16 17 9 9 9 6 9 10 11 15 13 7 7 8 5 10 21 16 5 5 9 8 7 6 5 4 9 16 19 16 12 8 4 5 8 9 6 6 7 5 3 6 8 8 7 7 9 9 9 12 12 11 8 6
13 11 8 6 6 7 7 9 10 11 12 14 19 24 18 12 10 9 5 4 7 4 4 12 6 -1 9 13 13 15 8 5 7 6 12 16 10 8 10 8 7 8 10 14 16 11 4 6 11 10 9 8 9 14 14 10 7 9 8 3 6 18 21 11 3 6 8 5 4 6 6 5 7 9 8 6 7 9 10 12 12 9 11 14 16 16 13 11
22 20 18 15 13 15 17 18 18 16 16 19 22 17 8 8 10 6 4 3 2 2 1 11 23 17 9 11 9 6 5 2 1 6 11 13 15 16 14 15 13 10 11 13 14 12 4 3 11 9 -1 1 11 14 13 13 9 7 7 4 5 10 13 11 5 3 7 7 6 9 9 7 4 4 8 9 7 7 6 6 5 4 7 9 11 17 20 18
18 19 20 21 19 18 18 17 16 14 15 18 16 12 9 6 1 2 8 1 -12 -11 -9 -5 11 11 -2 5 9 2 6 8 3 8 12 9 14 20 17 19 22 15 13 16 14 8 4 3 6 5 1 2 7 11 15 17 12 9 4 -1 6 9 1 3 8 6 8 9 5 8 11 10 8 6 8 8 5 7 7 6 7 6 7 11 11 13 18 19
14 14 15 17 16 14 13 11 13 13 14 14 10 10 10 3 -2 4 12 7 -8 -12 -9 -6 8 10 -4 1 11 5 6 12 5 7 14 8 5 12 12 14 17 5 0 16 23 14 8 6 5 9 9 4 2 9 19 19 10 11 8 -5 2 15 4 -2 4 4 7 10 8 6 2 1 5 7 6 5 6 9 9 8 13 13 10 13 16 17 17 16
10 8 9 12 10 11 11 10 12 11 10 13 10 9 8 -1 -1 6 11 12 6 -0 -0 -0 9 17 7 1 8 7 4 6 6 13 20 13 3 6 6 8 12 4 -1 14 24 17 13 12 7 8 9 2 1 6 15 21 13 11 18 11 5 12 8 1 5 3 1 4 6 7 7 4 5 3 4 8 4 2 11 22 24 17 13 14 16 17 14 10
6 1 7 11 8 8 8 8 9 9 10 12 7 8 8 -2 -4 8 14 14 10 6 4 3 6 12 10 3 3 5 7 5 4 10 20 16 7 4 5 7 7 3 2 7 11 9 9 12 9 6 6 4 4 3 1 13 20 12 8 10 10 14 10 1 1 5 9 9 4 3 5 3 3 6 11 16 10 4 15 35 36 20 14 17 16 14 11 8
3 1 12 14 8 8 8 6 8 8 8 7 3 6 8 -1 -6 4 12 12 12 13 9 5 6 7 8 11 4 -5 -1 5 4 4 10 13 8 3 9 10 0 -1 3 2 5 7 5 8 8 6 6 4 7 6 -4 1 20 18 2 -0 8 14 15 10 4 2 4 9 9 6 4 5 11 16 12 11 13 8 2 9 17 17 17 18 17 11 9 9
-1 -1 13 15 8 8 8 8 8 7 4 4 6 8 7 5 4 7 11 11 9 11 10 6 9 9 7 13 12 -2 -9 -6 -2 -1 3 12 13 6 11 12 -3 -4 5 2 1 6 4 4 10 11 6 1 4 9 3 0 11 14 6 5 7 6 9 13 13 7 0 1 5 4 5 9 8 4 6 14 19 15 10 6 3 6 12 13 14 10 7 8
-1 -5 6 13 12 9 7 8 8 8 7 8 9 9 7 10 13 12 13 14 9 8 11 8 7 8 3 3 11 10 1 -5 -3 -0 2 11 14 5 9 16 4 -4 -2 -5 -1 10 8 -1 5 13 9 4 8 10 7 2 1 4 4 1 2 3 4 6 6 6 5 4 5 5 5 5 -2 -6 5 13 7 4 18 23 10 5 10 11 14 13 9 9
2 6 9 11 12 10 8 8 6 7 11 11 8 8 8 9 11 12 11 13 13 12 13 12 9 9 8 6 8 9 7 4 1 1 3 8 11 7 7 12 11 4 -2 -7 -5 10 17 9 6 13 11 7 7 7 4 -5 -7 6 11 1 0 3 2 3 2 3 6 5 3 4 3 1 -2 -2 -1 0 4 10 15 17 11 7 9 8 10 12 12 12
2 19 21 16 13 10 9 9 9 9 10 10 9 9 9 8 10 15 13 11 11 11 13 13 12 12 12 14 14 11 12 10 -0 -4 -0 1 4 11 13 13 12 10 6 2 -0 2 7 8 8 12 14 13 10 5 5 2 -3 5 6 -2 3 8 7 7 2 0 7 8 5 8 13 13 9 8 5 5 11 12 6 8 9 6 4 6 8 9 9 10
-6 9 13 15 14 10 10 11 12 11 6 8 12 11 10 10 9 11 15 15 11 9 12 14 13 13 12 15 19 16 16 15 10 10 9 3 -0 3 8 13 16 16 10 6 7 6 3 2 2 4 9 16 16 8 6 10 8 7 5 2 6 11 14 15 7 0 4 8 7 9 13 14 15 22 30 27 13 3 4 11 12 7 6 7 7 7 8 8
3 9 11 17 15 8 7 8 7 6 3 5 10 11 11 10 8 8 11 16 15 11 11 12 12 12 10 12 16 15 14 13 13 17 15 9 8 7 5 7 10 16 16 9 7 6 5 6 6 4 4 9 14 8 3 7 9 8 6 6 6 8 11 12 8 3 2 1 0 1 3 3 -3 -3 6 10 8 10 14 13 10 7 6 7 9 9 8 7
10 10 6 12 19 13 5 4 7 7 5 4 4 8 12 10 8 8 6 8 15 17 14 10 9 10 8 7 7 11 15 11 9 14 14 9 7 7 8 9 9 12 13 14 20 16 7 7 6 3 4 5 8 12 11 8 8 8 8 5 4 7 10 9 8 7 7 6 5 4 6 9 7 6 7 6 5 7 5 4 8 9 6 6 9 8 6 6
11 14 7 3 12 18 9 3 8 8 7 7 5 7 12 11 9 10 8 8 12 17 18 12 8 10 11 11 11 14 19 17 12 12 14 12 7 3 3 7 13 13 1 -1 20 29 23 20 13 6 6 5 5 15 19 11 4 6 11 10 7 8 11 13 14 12 7 6 13 21 21 15 12 16 22 18 9 3 -2 -3 4 10 9 7 5 4 4 5
3 11 13 -2 -3 14 15 8 8 8 6 11 11 9 11 12 10 8 10 12 11 11 14 12 9 11 12 13 15 16 20 22 19 16 14 15 13 9 6 5 10 15 4 -3 8 19 23 28 25 17 13 6 -0 8 16 12 6 6 11 13 12 15 17 10 3 4 7 5 8 15 18 16 9 8 13 14 9 5 5 4 6 10 9 7 5 4 4 4
Height
5706 5707 5709 5710 5712 5713 5715 5717 5718 5720 5722 5724 5726 5728 5730 5732 5735 5737 5739 5742 5744 5747 5749 5752 5754 5757 5759 5761 5764 5766 5768 5771 5773 5776 5777 5779 5781 5783 5784 5786 5788 5790 5791 5793 5794 5795 5797 5798 5799 5801 5802 5804 5805 5806 5807 5808 5810 5811 5813 5815 5815 5814 5816 5818 5817 5817 5820 5821 5820 5822 5823 5825 5828 5830 5829 5829 5829 5828 5828 5832 5832 5831 5831 5831 5832 5832 5832 5832
5700 5701 5702 5704 5706 5707 5709 5711 5713 5715 5717 5719 5721 5723 5725 5727 5730 5732 5734 5737 5739 5742 5745 5748 5750 5753 5755 5757 5760 5762 5765 5767 5770 5772 5773 5775 5777 5779 5781 5783 5784 5786 5788 5789 5790 5792 5793 5795 5796 5798 5799 5801 5802 5803 5804 5806 5808 5809 5811 5811 5810 5811 5813 5814 5813 5814 5817 5818 5818 5820 5821 5823 5825 5827 5827 5827 5827 5826 5828 5832 5830 5828 5828 5829 5830 5830 5830 5830
5693 5694 5696 5698 5699 5701 5703 5705 5707 5709 5712 5713 5715 5717 5720 5722 5724 5727 5729 5732 5735 5738 5741 5743 5746 5748 5751 5753 5756 5759 5761 5763 5766 5767 5768 5772 5773 5775 5777 5779 5781 5782 5784 5785 5787 5788 5790 5791 5793 5794 5796 5797 5799 5800 5802 5804 5805 5807 5808 5808 5807 5809 5810 5811 5811 5812 5815 5816 5817 5818 5819 5821 5823 5824 5824 5824 5825 5824 5826 5830 5828 5826 5827 5827 5827 5828 5828 5827
5686 5688 5689 5691 5693 5695 5698 5700 5702 5704 5706 5708 5710 5712 5715 5717 5719 5722 5724 5727 5730 5733 5736 5739 5742 5744 5747 5750 5752 5755 5757 5760 5762 5763 5765 5768 5769 5771 5773 5775 5777 5778 5780 5782 5783 5785 5786 5788 5789 5791 5792 5794 5796 5797 5799 5802 5803 5805 5806 5804 5805 5807 5807 5808 5809 5811 5812 5814 5816 5816 5817 5819 5820 5821 5821 5821 5823 5823 5824 5827 5825 5823 5825 5825 5824 5826 5826 5826
5680 5681 5683 5685 5687 5690 5692 5694 5696 5699 5701 5703 5705 5707 5709 5712 5714 5717 5719 5722 5725 5728 5731 5734 5737 5740 5743 5745 5748 5751 5753 5756 5758 5759 5762 5764 5765 5768 5770 5771 5773 5775 5777 5778 5780 5781 5782 5784 5786 5788 5789 5791 5793 5795 5797 5799 5800 5802 5803 5802 5803 5805 5805 5806 5807 5809 5811 5812 5814 5814 5814 5815 5817 5818 5818 5818 5819 5821 5822 5823 5823 5821 5821 5822 5824 5824 5824 5824
5674 5675 5677 5679 5682 5684 5687 5689 5691 5694 5696 5698 5700 5702 5704 5707 5709 5712 5714 5717 5720 5724 5727 5730 5732 5735 5738 5741 5744 5747 5749 5752 5754 5756 5758 5760 5762 5764 5766 5768 5769 5771 5773 5775 5776 5777 5779 5781 5782 5785 5786 5788 5790 5792 5794 5795 5797 5800 5800 5800 5801 5802 5803 5804 5806 5807 5809 5810 5812 5812 5812 5812 5813 5814 5815 5815 5816 5819 5820 5821 5821 5818 5817 5819 5822 5822 5821 5822
5667 5669 5672 5674 5677 5679 5682 5684 5687 5689 5691 5694 5696 5697 5700 5702 5705 5707 5710 5713 5716 5719 5722 5725 5728 5731 5734 5737 5740 5743 5746 5748 5750 5752 5754 5756 5758 5760 5762 5764 5766 5768 5770 5771 5773 5774 5776 5778 5779 5781 5783 5786 5788 5789 5790 5792 5794 5797 5798 5799 5800 5800 5801 5802 5803 5804 5806 5809 5809 5810 5809 5810 5810 5811 5812 5811 5813 5817 5818 5819 5817 5815 5816 5815 5818 5819 5819 5820
5662 5664 5666 5669 5672 5675 5677 5680 5682 5684 5687 5689 5691 5693 5695 5698 5700 5703 5706 5708 5711 5714 5717 5720 5724 5727 5730 5733 5736 5739 5742 5744 5747 5749 5750 5752 5755 5757 5759 5761 5763 5765 5766 5768 5770 5771 5773 5775 5777 5779 5781 5783 5784 5785 5787 5789 5791 5794 5795 5796 5797 5798 5799 5800 5801 5802 5804 5807 5807 5807 5807 5808 5808 5808 5809 5807 5810 5815 5815 5816 5813 5813 5814 5813 5814 5816 5817 5818
5656 5658 5661 5664 5667 5670 5673 5675 5677 5680 5682 5684 5686 5689 5691 5694 5696 5699 5701 5704 5707 5710 5713 5716 5719 5722 5726 5729 5733 5736 5738 5741 5744 5745 5746 5749 5752 5754 5756 5758 5759 5761 5763 5765 5767 5769 5771 5772 5774 5776 5778 5779 5780 5782 5784 5786 5789 5791 5793 5794 5795 5796 5797 5798 5800 5800 5802 5804 5805 5806 5805 5806 5806 5806 5806 5804 5807 5812 5812 5812 5810 5811 5812 5811 5811 5812 5814 5815
5651 5653 5656 5659 5662 5665 5668 5671 5673 5675 5678 5680 5682 5684 5687 5690 5693 5695 5697 5700 5703 5706 5709 5712 5715 5718 5722 5726 5729 5732 5735 5738 5740 5741 5742 5746 5749 5750 5752 5754 5756 5758 5760 5762 5764 5766 5768 5769 5771 5773 5774 5776 5778 5780 5782 5784 5786 5787 5789 5792 5793 5794 5795 5796 5798 5799 5800 5801 5802 5803 5803 5804 5803 5803 5804 5802 5805 5809 5808 5808 5807 5809 5811 5809 5809 5809 5811 5813
5646 5649 5651 5654 5658 5661 5664 5666 5669 5671 5674 5676 5678 5681 5683 5686 5689 5691 5693 5696 5699 5702 5705 5707 5711 5715 5718 5722 5725 5728 5732 5734 5736 5738 5739 5742 5745 5747 5749 5751 5753 5756 5757 5760 5762 5763 5765 5766 5768 5769 5771 5773 5776 5778 5780 5782 5782 5783 5786 5789 5791 5792 5794 5795 5796 5797 5798 5799 5800 5801 5801 5801 5802 5802 5802 5800 5803 5806 5804 5804 5805 5808 5809 5808 5807 5806 5807 5809
5641 5644 5647 5650 5653 5656 5659 5662 5665 5667 5670 5672 5674 5677 5680 5683 5685 5688 5690 5692 5695 5698 5701 5704 5707 5711 5715 5719 5721 5724 5728 5731 5732 5734 5736 5738 5741 5743 5746 5748 5751 5753 5755 5757 5759 5761 5762 5763 5765 5767 5769 5771 5774 5776 5777 5779 5780 5782 5784 5787 5788 5790 5792 5793 5794 5795 5795 5796 5797 5798 5798 5799 5800 5800 5799 5797 5799 5803 5801 5800 5803 5805 5806 5806 5805 5804 5804 5804
5637 5639 5642 5646 5649 5652 5655 5658 5661 5663 5666 5668 5671 5674 5677 5679 5682 5685 5687 5689 5692 5694 5697 5701 5704 5708 5712 5714 5717 5721 5725 5727 5728 5730 5732 5735 5738 5740 5743 5745 5748 5750 5752 5754 5756 5758 5759 5761 5763 5765 5767 5770 5772 5773 5775 5777 5778 5780 5782 5784 5787 5788 5790 5791 5791 5792 5793 5794 5794 5795 5796 5797 5798 5798 5796 5795 5796 5799 5798 5797 5801 5803 5802 5802 5802 5802 5802 5801
5632 5635 5638 5641 5645 5648 5652 5654 5657 5660 5662 5665 5668 5671 5673 5676 5679 5682 5684 5686 5688 5691 5694 5698 5701 5705 5708 5711 5714 5719 5721 5723 5725 5727 5730 5732 5734 5737 5740 5743 5745 5747 5750 5752 5754 5756 5757 5759 5760 5762 5766 5768 5769 5770 5773 5775 5776 5778 5780 5783 5785 5786 5787 5788 5789 5790 5790 5791 5791 5792 5793 5794 5796 5795 5794 5793 5793 5794 5795 5795 5798 5800 5800 5800 5799 5799 5799 5799
5628 5630 5633 5637 5641 5644 5648 5651 5654 5656 5659 5662 5665 5668 5670 5673 5676 5679 5681 5683 5686 5688 5692 5695 5698 5702 5705 5708 5711 5715 5717 5719 5722 5725 5727 5729 5732 5734 5737 5740 5742 5745 5747 5749 5751 5753 5755 5756 5758 5760 5763 5764 5766 5769 5771 5773 5774 5777 5779 5781 5783 5783 5784 5785 5786 5787 5788 5788 5788 5789 5792 5792 5793 5793 5793 5792 5791 5791 5792 5794 5796 5796 5798 5798 5797 5796 5796 5796
5623 5626 5629 5633 5636 5640 5644 5647 5650 5653 5656 5659 5662 5665 5668 5671 5673 5676 5678 5681 5683 5686 5689 5692 5696 5699 5702 5705 5709 5712 5714 5716 5719 5722 5724 5726 5729 5732 5735 5737 5740 5742 5744 5746 5748 5750 5752 5754 5756 5758 5760 5761 5764 5767 5769 5770 5773 5775 5777 5779 5780 5781 5781 5781 5783 5784 5784 5784 5784 5787 5790 5790 5790 5791 5791 5790 5790 5789 5790 5792 5793 5794 5795 5795 5795 5794 5794 5795
5619 5622 5625 5629 5632 5636 5640 5644 5647 5650 5653 5657 5660 5663 5665 5668 5671 5673 5676 5678 5681 5684 5687 5690 5694 5697 5699 5703 5705 5708 5711 5713 5716 5720 5722 5724 5727 5729 5732 5735 5737 5739 5741 5743 5745 5747 5749 5751 5753 5755 5757 5759 5762 5764 5766 5769 5772 5774 5776 5777 5778 5779 5778 5778 5779 5780 5782 5782 5782 5785 5788 5788 5788 5789 5788 5788 5787 5787 5788 5789 5790 5791 5792 5792 5793 5793 5794 5794
5614 5618 5621 5625 5628 5632 5637 5640 5643 5647 5650 5654 5657 5660 5663 5666 5668 5671 5674 5676 5679 5682 5685 5688 5691 5694 5697 5700 5702 5705 5708 5711 5714 5717 5719 5722 5724 5727 5730 5732 5734 5736 5738 5740 5742 5744 5746 5748 5750 5752 5754 5757 5760 5762 5765 5768 5770 5772 5773 5774 5775 5776 5776 5776 5777 5778 5779 5779 5780 5782 5786 5787 5787 5786 5786 5785 5784 5784 5786 5787 5787 5788 5789 5790 5791 5791 5792 5793
5610 5613 5617 5621 5624 5628 5633 5637 5640 5644 5648 5651 5654 5658 5660 5663 5666 5668 5671 5674 5677 5680 5682 5686 5689 5691 5694 5697 5699 5703 5707 5709 5711 5714 5717 5719 5722 5724 5727 5729 5731 5733 5735 5737 5740 5742 5744 5745 5747 5750 5753 5756 5759 5761 5764 5766 5767 5768 5769 5770 5771 5773 5776 5777 5777 5777 5778 5778 5778 5779 5782 5785 5786 5784 5783 5783 5782 5783 5785 5785 5785 5786 5787 5788 5789 5789 5789 5790
5606 5610 5614 5617 5620 5625 5630 5634 5637 5641 5645 5649 5652 5655 5658 5661 5664 5666 5670 5673 5675 5677 5680 5683 5686 5689 5692 5695 5697 5700 5704 5707 5709 5712 5714 5717 5719 5721 5724 5726 5728 5730 5733 5735 5737 5739 5741 5743 5746 5749 5753 5755 5757 5759 5761 5762 5763 5765 5765 5766 5768 5771 5775 5777 5776 5777 5778 5778 5776 5776 5778 5783 5784 5784 5782 5782 5781 5782 5783 5783 5783 5784 5785 5786 5787 5787 5786 5787
5603 5607 5610 5613 5617 5623 5627 5631 5635 5639 5643 5646 5650 5653 5656 5659 5662 5665 5668 5671 5673 5675 5678 5681 5684 5686 5689 5691 5694 5698 5702 5704 5706 5709 5712 5714 5716 5719 5721 5723 5726 5728 5730 5732 5734 5736 5739 5742 5746 5749 5751 5752 5754 5756 5758 5759 5760 5762 5762 5763 5766 5770 5774 5776 5777 5777 5776 5775 5775 5774 5775 5779 5782 5783 5781 5780 5779 5780 5780 5780 5780 5781 5782 5784 5785 5785 5784 5785
5601 5604 5607 5610 5615 5620 5625 5629 5632 5636 5640 5644 5647 5650 5654 5658 5660 5663 5666 5669 5671 5673 5676 5679 5681 5683 5686 5688 5691 5696 5699 5701 5703 5706 5709 5712 5715 5717 5719 5721 5723 5726 5727 5729 5731 5734 5738 5742 5745 5746 5748 5749 5750 5752 5755 5757 5758 5759 5759 5760 5764 5768 5771 5774 5776 5775 5774 5774 5774 5772 5771 5775 5779 5781 5780 5779 5778 5778 5777 5776 5777 5777 5777 5780 5782 5782 5782 5782
5598 5601 5604 5608 5613 5618 5622 5626 5630 5634 5638 5642 5645 5649 5653 5656 5658 5661 5664 5667 5669 5671 5674 5677 5679 5681 5682 5685 5689 5693 5696 5698 5700 5704 5706 5709 5712 5714 5716 5719 5721 5723 5724 5726 5729 5733 5737 5740 5741 5742 5744 5745 5747 5750 5753 5754 5755 5756 5757 5759 5762 5765 5768 5770 5772 5773 5773 5773 5771 5769 5768 5772 5776 5777 5778 5778 5777 5777 5776 5775 5774 5773 5774 5776 5778 5779 5779 5779
5596 5599 5602 5606 5611 5616 5620 5624 5628 5633 5636 5640 5643 5647 5651 5653 5656 5659 5662 5664 5667 5669 5672 5674 5677 5678 5680 5682 5686 5690 5693 5694 5696 5699 5703 5706 5708 5711 5714 5716 5718 5720 5721 5724 5728 5732 5735 5736 5737 5738 5740 5742 5745 5747 5750 5751 5751 5752 5754 5758 5761 5763 5765 5767 5769 5770 5771 5770 5768 5768 5767 5768 5772 5774 5775 5776 5776 5776 5776 5774 5772 5771 5771 5773 5774 5775 5776 5777
5594 5597 5600 5605 5610 5614 5618 5623 5626 5630 5634 5638 5642 5646 5649 5651 5654 5657 5660 5663 5665 5667 5669 5671 5674 5676 5677 5679 5683 5687 5689 5690 5692 5696 5701 5703 5704 5707 5711 5713 5715 5717 5719 5722 5726 5729 5732 5732 5733 5735 5737 5739 5741 5744 5746 5747 5749 5750 5753 5757 5759 5761 5762 5764 5765 5765 5765 5765 5766 5767 5765 5765 5769 5771 5772 5773 5774 5774 5774 5774 5772 5770 5769 5769 5770 5771 5772 5774
5592 5595 5599 5604 5608 5612 5617 5620 5624 5628 5632 5636 5640 5644 5647 5649 5652 5655 5658 5661 5663 5665 5667 5670 5672 5674 5675 5677 5681 5684 5685 5687 5689 5692 5697 5699 5700 5704 5708 5710 5712 5715 5717 5720 5722 5726 5728 5729 5731 5733 5735 5737 5738 5740 5742 5744 5746 5749 5752 5755 5756 5758 5760 5761 5762 5761 5762 5764 5764 5764 5762 5763 5767 5769 5770 5771 5771 5770 5770 5771 5771 5770 5768 5766 5767 5769 5769 5771
5591 5594 5598 5602 5607 5611 5615 5619 5623 5627 5631 5636 5640 5643 5645 5647 5651 5654 5656 5659 5661 5663 5666 5668 5670 5672 5674 5676 5679 5681 5683 5686 5687 5688 5695 5697 5698 5702 5705 5707 5710 5712 5715 5716 5718 5723 5726 5727 5728 5730 5731 5733 5735 5737 5739 5740 5744 5747 5750 5752 5753 5755 5757 5759 5760 5761 5762 5763 5762 5760 5759 5761 5765 5767 5768 5767 5768 5768 5767 5767 5768 5768 5766 5763 5763 5766 5766 5767
5590 5593 5597 5601 5605 5610 5614 5617 5621 5626 5630 5634 5637 5641 5643 5646 5649 5652 5655 5657 5659 5661 5664 5667 5668 5670 5672 5674 5677 5679 5681 5684 5685 5687 5693 5696 5696 5699 5702 5704 5708 5710 5712 5714 5716 5720 5724 5725 5726 5728 5729 5731 5732 5735 5737 5739 5742 5745 5747 5749 5751 5752 5754 5756 5757 5758 5759 5759 5759 5759 5760 5760 5763 5765 5765 5764 5766 5765 5763 5763 5763 5762 5762 5761 5761 5763 5763 5763
5590 5593 5596 5600 5604 5608 5612 5616 5620 5624 5628 5631 5635 5638 5641 5644 5647 5650 5653 5655 5657 5659 5663 5665 5667 5668 5670 5672 5675 5677 5679 5682 5684 5685 5690 5692 5693 5696 5699 5702 5706 5707 5709 5711 5714 5717 5720 5723 5725 5726 5728 5729 5731 5734 5735 5737 5739 5742 5744 5745 5746 5747 5749 5750 5751 5753 5754 5754 5755 5758 5759 5759 5761 5762 5762 5762 5763 5762 5761 5761 5760 5760 5760 5760 5760 5760 5760 5760
5590 5593 5596 5599 5603 5607 5611 5615 5619 5623 5627 5631 5634 5637 5640 5643 5646 5649 5652 5654 5655 5658 5661 5663 5665 5666 5668 5671 5673 5675 5678 5680 5681 5682 5686 5689 5691 5693 5697 5699 5702 5704 5705 5708 5712 5715 5717 5720 5722 5724 5725 5726 5729 5731 5732 5734 5736 5739 5741 5742 5743 5744 5745 5746 5748 5751 5751 5750 5753 5757 5757 5757 5758 5759 5758 5758 5759 5759 5759 5759 5760 5760 5760 5759 5758 5758 5758 5758
5589 5592 5595 5599 5603 5606 5611 5615 5619 5622 5626 5629 5632 5635 5639 5641 5644 5647 5650 5652 5654 5656 5659 5661 5663 5665 5667 5670 5672 5674 5676 5677 5678 5680 5684 5688 5689 5691 5694 5696 5699 5701 5703 5705 5709 5713 5715 5716 5718 5720 5722 5724 5726 5729 5730 5732 5733 5735 5738 5739 5741 5742 5742 5743 5746 5748 5748 5748 5752 5755 5754 5754 5756 5756 5755 5754 5755 5756 5757 5758 5759 5760 5759 5757 5756 5757 5756 5756
5589 5592 5595 5599 5602 5606 5610 5614 5617 5620 5623 5626 5630 5634 5637 5640 5642 5646 5648 5651 5652 5655 5658 5659 5661 5663 5665 5668 5670 5672 5675 5675 5676 5679 5684 5686 5688 5690 5693 5695 5698 5700 5702 5704 5707 5710 5712 5713 5715 5718 5720 5721 5724 5727 5729 5729 5730 5732 5735 5737 5738 5739 5740 5741 5744 5745 5745 5747 5751 5752 5751 5752 5752 5752 5751 5752 5753 5754 5755 5757 5757 5758 5757 5755 5755 5755 5753 5753
5589 5592 5595 5598 5601 5605 5609 5612 5616 5619 5622 5625 5628 5632 5635 5638 5642 5645 5648 5650 5651 5654 5657 5657 5659 5662 5663 5666 5668 5671 5673 5674 5675 5679 5682 5684 5686 5689 5692 5694 5696 5699 5702 5704 5707 5709 5710 5711 5713 5716 5718 5720 5722 5724 5726 5727 5728 5730 5733 5734 5735 5737 5738 5739 5741 5743 5744 5745 5747 5748 5749 5750 5749 5748 5748 5749 5751 5752 5753 5754 5755 5755 5754 5754 5753 5752 5751 5750
5589 5592 5595 5598 5601 5605 5608 5611 5614 5618 5621 5624 5627 5630 5633 5637 5641 5644 5647 5648 5650 5653 5656 5657 5658 5660 5662 5664 5667 5670 5672 5673 5674 5678 5680 5682 5684 5686 5689 5691 5693 5697 5700 5702 5704 5706 5708 5709 5711 5713 5716 5719 5721 5722 5724 5725 5726 5728 5731 5732 5733 5734 5736 5737 5739 5740 5741 5743 5744 5745 5746 5747 5746 5745 5746 5748 5749 5750 5751 5752 5752 5752 5752 5752 5751 5750 5748 5748
5589 5592 5594 5597 5601 5604 5607 5610 5613 5616 5619 5622 5625 5629 5632 5636 5640 5642 5644 5646 5649 5653 5656 5657 5657 5658 5661 5663 5665 5668 5670 5671 5673 5677 5679 5680 5682 5685 5688 5690 5692 5695 5698 5699 5701 5704 5706 5708 5710 5712 5714 5717 5718 5720 5721 5722 5723 5725 5727 5729 5730 5732 5734 5735 5736 5737 5738 5739 5741 5743 5743 5743 5744 5743 5744 5746 5747 5748 5749 5749 5749 5749 5749 5750 5749 5747 5746 5745
5589 5591 5594 5597 5600 5603 5606 5609 5612 5615 5618 5621 5624 5628 5632 5635 5637 5640 5642 5643 5646 5650 5654 5656 5656 5658 5660 5662 5664 5666 5668 5671 5672 5675 5677 5679 5681 5684 5686 5689 5691 5693 5696 5698 5700 5702 5704 5707 5709 5710 5711 5713 5716 5718 5719 5720 5721 5722 5724 5726 5729 5731 5732 5733 5734 5735 5736 5736 5738 5740 5741 5741 5741 5741 5742 5744 5744 5745 5746 5746 5747 5746 5746 5747 5746 5745 5744 5742
5587 5590 5593 5595 5598 5602 5604 5607 5610 5613 5616 5619 5623 5627 5630 5632 5635 5638 5640 5641 5644 5647 5650 5653 5655 5658 5660 5662 5664 5666 5668 5671 5671 5672 5676 5678 5680 5683 5685 5687 5689 5691 5695 5697 5699 5701 5703 5705 5707 5709 5710 5712 5714 5716 5717 5718 5720 5721 5722 5725 5728 5729 5729 5730 5732 5733 5733 5734 5736 5738 5738 5738 5738 5738 5740 5741 5741 5742 5743 5744 5744 5744 5743 5743 5743 5743 5742 5740
5586 5589 5591 5594 5597 5600 5603 5606 5609 5612 5615 5619 5623 5626 5628 5631 5632 5633 5635 5640 5643 5645 5648 5651 5653 5657 5660 5663 5665 5666 5668 5670 5670 5672 5675 5676 5678 5681 5683 5686 5688 5690 5693 5695 5697 5699 5700 5703 5705 5706 5708 5710 5712 5713 5714 5716 5718 5719 5720 5723 5725 5727 5728 5728 5729 5730 5731 5732 5733 5735 5736 5734 5735 5736 5738 5739 5738 5739 5741 5741 5741 5741 5740 5740 5740 5740 5739 5738
5586 5588 5591 5593 5596 5599 5602 5605 5608 5611 5615 5619 5622 5625 5628 5631 5632 5632 5635 5638 5641 5645 5647 5649 5650 5653 5657 5661 5664 5666 5667 5669 5669 5671 5674 5675 5677 5679 5681 5684 5686 5689 5691 5693 5695 5696 5697 5699 5702 5705 5707 5708 5709 5710 5712 5715 5717 5718 5719 5720 5722 5725 5726 5727 5727 5728 5729 5730 5731 5733 5732 5731 5731 5733 5735 5737 5737 5737 5738 5738 5738 5738 5737 5737 5737 5736 5736 5736
5585 5588 5591 5594 5596 5599 5602 5605 5608 5612 5615 5619 5622 5624 5627 5629 5630 5632 5636 5637 5639 5643 5646 5646 5647 5651 5653 5656 5660 5662 5664 5667 5667 5670 5673 5674 5675 5677 5678 5681 5684 5686 5689 5691 5693 5694 5694 5696 5700 5703 5705 5705 5706 5708 5711 5713 5715 5717 5718 5718 5720 5722 5723 5724 5725 5726 5727 5727 5728 5730 5729 5727 5729 5731 5733 5735 5735 5735 5735 5735 5736 5736 5735 5734 5734 5734 5734 5734
5586 5588 5591 5593 5596 5599 5602 5605 5609 5612 5615 5618 5621 5623 5625 5626 5626 5629 5635 5636 5638 5642 5645 5646 5648 5650 5651 5652 5656 5658 5660 5663 5664 5667 5670 5670 5672 5673 5674 5677 5680 5682 5684 5687 5690 5691 5691 5694 5698 5701 5702 5703 5704 5707 5710 5712 5713 5714 5716 5718 5719 5720 5721 5722 5722 5723 5724 5724 5725 5726 5725 5725 5726 5729 5731 5732 5733 5733 5733 5732 5732 5732 5732 5732 5733 5733 5733 5734
5586 5588 5591 5593 5595 5598 5601 5605 5608 5611 5614 5617 5618 5620 5623 5624 5625 5629 5634 5635 5637 5641 5643 5644 5647 5649 5650 5651 5654 5656 5657 5658 5660 5663 5666 5667 5669 5671 5672 5674 5675 5677 5679 5682 5685 5687 5688 5690 5694 5696 5698 5700 5703 5706 5708 5710 5711 5713 5715 5716 5717 5718 5719 5719 5719 5720 5721 5722 5723 5724 5723 5722 5724 5727 5729 5729 5731 5731 5731 5729 5729 5729 5730 5731 5732 5732 5732 5732
5584 5588 5590 5593 5595 5598 5600 5604 5607 5610 5613 5614 5615 5618 5621 5623 5624 5628 5632 5633 5635 5638 5640 5642 5644 5647 5649 5651 5653 5653 5654 5656 5657 5658 5660 5662 5665 5668 5669 5671 5672 5674 5677 5679 5681 5683 5685 5687 5689 5692 5694 5698 5701 5703 5704 5705 5707 5709 5710 5710 5712 5713 5714 5714 5715 5717 5719 5719 5720 5721 5721 5721 5722 5725 5727 5727 5728 5729 5728 5728 5727 5727 5728 5729 5730 5731 5730 5731
5584 5587 5590 5593 5595 5598 5601 5603 5606 5608 5610 5612 5614 5617 5620 5621 5624 5627 5629 5630 5632 5634 5637 5640 5642 5645 5648 5650 5651 5651 5652 5654 5655 5655 5657 5659 5662 5665 5667 5669 5671 5673 5675 5677 5678 5681 5683 5684 5686 5688 5691 5695 5698 5699 5699 5701 5702 5702 5703 5705 5707 5708 5709 5711 5713 5715 5716 5716 5716 5718 5718 5718 5720 5723 5724 5725 5726 5726 5726 5726 5725 5725 5727 5727 5728 5729 5729 5729
5584 5587 5589 5592 5595 5597 5600 5602 5605 5607 5609 5611 5614 5616 5618 5620 5622 5624 5626 5628 5630 5632 5634 5637 5639 5641 5644 5646 5648 5649 5651 5653 5654 5655 5657 5659 5660 5662 5665 5666 5668 5671 5674 5675 5677 5679 5681 5681 5683 5685 5688 5691 5694 5694 5695 5697 5698 5698 5700 5702 5704 5705 5707 5709 5710 5712 5713 5713 5713 5715 5715 5716 5718 5720 5722 5723 5724 5724 5724 5723 5723 5723 5724 5725 5726 5726 5726 5727
5585 5587 5589 5591 5594 5596 5599 5601 5603 5606 5609 5611 5612 5614 5617 5619 5620 5622 5624 5626 5628 5630 5632 5635 5636 5638 5641 5643 5645 5647 5649 5651 5653 5654 5655 5656 5658 5660 5662 5663 5666 5669 5672 5674 5676 5678 5679 5680 5681 5683 5685 5687 5689 5690 5691 5694 5695 5696 5698 5699 5701 5703 5705 5707 5708 5709 5711 5711 5712 5713 5713 5715 5716 5719 5721 5721 5722 5722 5722 5721 5721 5721 5722 5723 5724 5724 5724 5724
5585 5587 5589 5591 5594 5596 5599 5601 5603 5605 5607 5609 5611 5613 5615 5616 5618 5620 5622 5624 5626 5627 5630 5633 5634 5637 5639 5640 5643 5645 5647 5649 5650 5650 5651 5653 5656 5658 5660 5662 5664 5667 5669 5672 5674 5676 5677 5677 5679 5681 5683 5685 5686 5688 5690 5692 5693 5695 5696 5697 5699 5701 5703 5705 5706 5707 5708 5709 5710 5711 5712 5713 5715 5717 5719 5720 5720 5720 5720 5720 5720 5720 5720 5721 5722 5722 5722 5722
5584 5587 5588 5591 5593 5596 5598 5601 5603 5605 5607 5608 5610 5612 5613 5615 5616 5618 5619 5621 5623 5625 5628 5630 5632 5634 5637 5638 5641 5642 5644 5646 5647 5647 5649 5652 5654 5656 5658 5660 5662 5664 5666 5669 5671 5672 5674 5675 5676 5679 5681 5683 5685 5686 5687 5690 5692 5693 5694 5695 5697 5699 5701 5703 5704 5705 5707 5707 5708 5709 5710 5712 5713 5714 5716 5718 5718 5718 5718 5719 5719 5718 5719 5719 5720 5720 5720 5721
5584 5586 5588 5590 5592 5594 5597 5600 5602 5604 5606 5608 5609 5610 5612 5613 5614 5616 5618 5620 5621 5623 5626 5628 5630 5633 5634 5635 5636 5637 5639 5642 5643 5644 5647 5649 5652 5654 5656 5658 5659 5661 5664 5666 5667 5669 5671 5672 5673 5676 5678 5680 5682 5683 5684 5688 5689 5690 5692 5693 5694 5696 5698 5700 5702 5704 5705 5705 5706 5707 5708 5710 5711 5712 5714 5715 5716 5716 5716 5717 5717 5717 5717 5717 5718 5718 5718 5719
5584 5586 5588 5590 5592 5594 5597 5599 5600 5602 5605 5606 5607 5609 5611 5612 5613 5615 5617 5618 5619 5621 5623 5626 5627 5629 5630 5630 5631 5633 5636 5638 5640 5641 5644 5647 5649 5652 5653 5655 5657 5659 5661 5663 5664 5665 5668 5670 5671 5672 5674 5677 5679 5680 5682 5684 5686 5688 5689 5691 5692 5693 5694 5696 5698 5701 5703 5703 5704 5705 5706 5707 5708 5709 5711 5712 5714 5714 5715 5715 5715 5715 5715 5715 5715 5716 5716 5717
5584 5586 5588 5589 5591 5593 5595 5597 5599 5601 5603 5605 5606 5608 5609 5611 5612 5614 5616 5617 5618 5620 5622 5623 5624 5625 5627 5628 5629 5631 5634 5636 5638 5639 5641 5643 5646 5648 5650 5652 5654 5656 5658 5659 5660 5662 5664 5666 5668 5669 5671 5673 5675 5677 5678 5681 5683 5685 5687 5688 5690 5690 5691 5693 5695 5697 5699 5700 5702 5703 5703 5705 5706 5707 5708 5709 5710 5712 5713 5713 5713 5713 5713 5714 5714 5714 5714 5715
5584 5585 5587 5589 5590 5592 5594 5596 5598 5600 5602 5604 5605 5607 5608 5609 5611 5612 5614 5616 5617 5618 5620 5621 5623 5624 5626 5627 5628 5631 5634 5635 5637 5638 5639 5641 5644 5646 5648 5649 5651 5653 5655 5656 5657 5659 5661 5663 5665 5666 5668 5670 5672 5673 5674 5677 5679 5682 5684 5686 5687 5688 5689 5690 5692 5695 5696 5697 5699 5700 5701 5702 5703 5704 5705 5706 5707 5708 5709 5710 5711 5711 5711 5712 5712 5712 5713 5713